Location: �bnet
(46.9957°N, 8.4908°E)
Time: 02:25:56
(UTC+00:00)

SPOT 5 - Pass Details

Date: 11 May 2021
Orbit: 623 x 815 km, 98.2° (Epoch: 18 June)

Event Time Altitude Azimuth Distance (km) Brightness Sun altitude
Exits shadow 19:59:16 13° 117° (ESE) 2,107 4.7 -10.5°
Maximum altitude 20:03:00 29° 63° (ENE) 1,416 4.2 -11.0°
Drops below altitude 10° 20:07:30 10° 5° (N) 2,393 6.1 -11.6°
Sets 20:10:08 0° 355° (N) 3,342 7.1 -11.9°
